Change the Weather History Date:

Tuesday, December 11, 2012

  Actual Average (KAQP) Record (KAQP)
Temperature  
Mean Temperature 10 °F -  
Max Temperature 19 °F 28 °F 51 °F (1998)
Min Temperature 1 °F 12 °F -13 °F (2013)
Degree Days  
Heating Degree Days 55    
Moisture  
Dew Point 7 °F    
Average Humidity 85    
Maximum Humidity 93    
Minimum Humidity 79    
Precipitation  
Precipitation 0.01 in - - ()
Sea Level Pressure  
Sea Level Pressure 29.86 in    
Wind  
Wind Speed 5 mph (North)    
Max Wind Speed 9 mph    
Max Gust Speed -    
Visibility 8 miles    
Events Snow    
Averages and records for this station are not official NWS values.
T = Trace of Precipitation, MM = Missing Value Source: NWS Daily Summary

Daily Weather History Graph

Daily Weather History Graph

Search for Another Location

Airport or City:

Trip Planner

Search our weather history database for the weather conditions in past years. The results will help you decide how hot, cold, wet, or windy it might be!

Date:

Astronomy

Dec. 11, 2012 Rise Set
Actual Time 7:53 AM CST 4:43 PM CST
Civil Twilight 7:19 AM CST 5:16 PM CST
Nautical Twilight 6:42 AM CST 5:53 PM CST
Astronomical Twilight 6:06 AM CST 6:29 PM CST
Moon 5:47 AM CST (12/11) 3:25 PM CST (12/11)
Length of Visible Light 9h 57m
Length of Day
8h 49m
Waning Crescent, 4% of the Moon is Illuminated
Dec 11
Waning Crescent
Dec 13
New
Dec 19
First Quarter
Dec 28
Full
Jan 4
Last Quarter

Hourly Weather History & Observations

Time (CST) Temp. Windchill Dew Point Humidity Pressure Visibility Wind Dir Wind Speed Gust Speed Precip Events Conditions
12:14 AM 6.8 °F -4.8 °F 3.2 °F 85% 29.79 in 10.0 mi West 6.9 mph - N/A   Scattered Clouds
12:33 AM 6.8 °F -3.5 °F 3.2 °F 85% 29.79 in 10.0 mi West 5.8 mph - N/A   Clear
12:53 AM 6.8 °F -4.8 °F 3.2 °F 85% 29.79 in 10.0 mi West 6.9 mph - N/A   Clear
1:14 AM 6.8 °F -3.5 °F 3.2 °F 85% 29.79 in 10.0 mi West 5.8 mph - N/A   Clear
1:31 AM 6.8 °F -2.0 °F 1.4 °F 79% 29.79 in 10.0 mi WSW 4.6 mph - N/A   Clear
1:54 AM 6.8 °F -5.9 °F 3.2 °F 85% 29.79 in 10.0 mi West 8.1 mph - N/A   Mostly Cloudy
2:13 AM 8.6 °F -2.6 °F 3.2 °F 79% 29.79 in 10.0 mi West 6.9 mph - N/A   Mostly Cloudy
2:33 AM 6.8 °F -3.5 °F 3.2 °F 85% 29.80 in 10.0 mi West 5.8 mph - N/A   Scattered Clouds
2:54 AM 8.6 °F -4.7 °F 5.0 °F 85% 29.80 in 10.0 mi West 9.2 mph - N/A   Clear
3:14 AM 8.6 °F -2.6 °F 5.0 °F 85% 29.80 in 10.0 mi West 6.9 mph - N/A   Clear
3:33 AM 8.6 °F -1.3 °F 5.0 °F 85% 29.80 in 10.0 mi West 5.8 mph - N/A   Clear
3:54 AM 8.6 °F -2.6 °F 5.0 °F 85% 29.80 in 10.0 mi West 6.9 mph - N/A   Clear
4:14 AM 6.8 °F -3.5 °F 3.2 °F 85% 29.80 in 10.0 mi West 5.8 mph - N/A   Clear
4:33 AM 8.6 °F 2.0 °F 5.0 °F 85% 29.80 in 10.0 mi WSW 3.5 mph - N/A   Mostly Cloudy
4:54 AM 12.2 °F 2.9 °F 10.4 °F 92% 29.80 in 10.0 mi West 5.8 mph - N/A   Overcast
5:14 AM 14.0 °F 3.9 °F 10.4 °F 86% 29.80 in 10.0 mi West 6.9 mph - N/A   Overcast
5:33 AM 15.8 °F 10.2 °F 10.4 °F 79% 29.80 in 10.0 mi West 3.5 mph - N/A   Overcast
5:54 AM 15.8 °F 10.2 °F 10.4 °F 79% 29.80 in 10.0 mi West 3.5 mph - N/A   Overcast
6:14 AM 15.8 °F - 10.4 °F 79% 29.80 in 10.0 mi Calm Calm - N/A   Overcast
6:33 AM 15.8 °F - 10.4 °F 79% 29.81 in 10.0 mi Calm Calm - N/A   Overcast
6:54 AM 15.8 °F - 12.2 °F 86% 29.81 in 10.0 mi Calm Calm - N/A   Overcast
7:14 AM 17.6 °F - 12.2 °F 79% 29.81 in 10.0 mi Calm Calm - N/A   Overcast
7:33 AM 17.6 °F - 12.2 °F 79% 29.82 in 10.0 mi Calm Calm - 0.01 in Snow Light Snow
7:54 AM 15.8 °F - 12.2 °F 86% 29.82 in 10.0 mi Calm Calm - 0.01 in   Overcast
8:13 AM 15.8 °F 10.2 °F 12.2 °F 86% 29.82 in 10.0 mi North 3.5 mph - N/A   Overcast
8:34 AM 17.6 °F - 12.2 °F 79% 29.83 in 10.0 mi Calm Calm - N/A   Overcast
8:54 AM 17.6 °F - 14.0 °F 86% 29.83 in 2.0 mi Calm Calm - N/A Snow Light Snow
9:13 AM 17.6 °F - 15.8 °F 93% 29.83 in 4.0 mi Calm Calm - N/A Snow Light Snow
9:34 AM 17.6 °F - 15.8 °F 93% 29.84 in 1.8 mi Calm Calm - N/A Snow Light Snow
9:54 AM 17.6 °F - 15.8 °F 93% 29.85 in 1.8 mi Calm Calm - N/A Snow Light Snow
10:13 AM 19.4 °F 14.3 °F 15.8 °F 86% 29.85 in 2.5 mi North 3.5 mph - N/A Snow Light Snow
10:34 AM 17.6 °F - 12.2 °F 79% 29.86 in 2.5 mi Calm Calm - N/A Snow Light Snow
11:13 AM 17.6 °F 10.7 °F 12.2 °F 79% 29.87 in 7.0 mi NNW 4.6 mph - N/A Snow Light Snow
11:34 AM 17.6 °F 8.2 °F 12.2 °F 79% 29.86 in 7.0 mi North 6.9 mph - N/A Snow Light Snow
11:54 AM 19.4 °F 10.4 °F 14.0 °F 80% 29.86 in 10.0 mi North 6.9 mph - N/A   Mostly Cloudy
12:13 PM 19.4 °F 8.6 °F 14.0 °F 80% 29.86 in 7.0 mi North 9.2 mph - N/A Snow Light Snow
12:34 PM 19.4 °F 9.5 °F 14.0 °F 80% 29.87 in 4.0 mi North 8.1 mph - N/A Snow Light Snow
12:54 PM 17.6 °F 7.3 °F 14.0 °F 86% 29.88 in 3.0 mi NNW 8.1 mph - N/A Snow Light Snow
1:13 PM 17.6 °F 9.3 °F 12.2 °F 79% 29.88 in 4.0 mi North 5.8 mph - N/A Snow Light Snow
1:34 PM 17.6 °F 10.7 °F 12.2 °F 79% 29.88 in 10.0 mi NNW 4.6 mph - N/A Snow Light Snow
1:54 PM 17.6 °F 9.3 °F 12.2 °F 79% 29.89 in 10.0 mi NNW 5.8 mph - N/A Snow Light Snow
2:13 PM 15.8 °F 8.6 °F 12.2 °F 86% 29.89 in 10.0 mi NE 4.6 mph - N/A   Scattered Clouds
2:34 PM 15.8 °F 8.6 °F 10.4 °F 79% 29.89 in 10.0 mi NE 4.6 mph - N/A   Scattered Clouds
2:54 PM 14.0 °F 6.5 °F 10.4 °F 86% 29.90 in 10.0 mi NE 4.6 mph - N/A   Scattered Clouds
3:13 PM 12.2 °F 4.3 °F 8.6 °F 85% 29.90 in 7.0 mi NNE 4.6 mph - N/A Snow Light Snow
3:34 PM 12.2 °F 2.9 °F 8.6 °F 85% 29.91 in 10.0 mi NE 5.8 mph - N/A   Mostly Cloudy
3:54 PM 10.4 °F 4.0 °F 6.8 °F 85% 29.91 in 4.0 mi ENE 3.5 mph - N/A Snow Light Snow
4:13 PM 10.4 °F 4.0 °F 8.6 °F 92% 29.91 in 5.0 mi ENE 3.5 mph - N/A Snow Light Snow
4:34 PM 12.2 °F - 8.6 °F 85% 29.91 in 7.0 mi Calm Calm - N/A Snow Light Snow
4:54 PM 12.2 °F 6.1 °F 8.6 °F 85% 29.91 in 7.0 mi ENE 3.5 mph - N/A Snow Light Snow
5:13 PM 12.2 °F - 8.6 °F 85% 29.91 in 10.0 mi Calm Calm - N/A Snow Light Snow
5:34 PM 6.8 °F - 5.0 °F 92% 29.92 in 10.0 mi Calm Calm - N/A   Scattered Clouds
5:53 PM 10.4 °F 4.0 °F 6.8 °F 85% 29.92 in 10.0 mi ESE 3.5 mph - N/A   Scattered Clouds
6:14 PM 8.6 °F 2.0 °F 6.8 °F 92% 29.92 in 10.0 mi ESE 3.5 mph - N/A   Scattered Clouds
6:34 PM 8.6 °F 0.1 °F 6.8 °F 92% 29.92 in 10.0 mi SE 4.6 mph - N/A   Clear
6:53 PM 8.6 °F -1.3 °F 6.8 °F 92% 29.93 in 10.0 mi SE 5.8 mph - N/A   Clear
7:14 PM 5.0 °F -4.1 °F 1.4 °F 85% 29.92 in 7.0 mi ESE 4.6 mph - N/A   Clear
7:34 PM 3.2 °F -6.2 °F 1.4 °F 92% 29.93 in 7.0 mi ESE 4.6 mph - N/A   Clear
7:53 PM 5.0 °F -5.6 °F 1.4 °F 85% 29.92 in 10.0 mi ESE 5.8 mph - N/A   Clear
8:14 PM 3.2 °F -9.1 °F -0.4 °F 85% 29.92 in 7.0 mi SE 6.9 mph - N/A   Clear
8:34 PM 3.2 °F -7.8 °F -0.4 °F 85% 29.92 in 10.0 mi SE 5.8 mph - N/A   Clear
8:53 PM 3.2 °F -7.8 °F -0.4 °F 85% 29.92 in 7.0 mi ESE 5.8 mph - N/A   Clear
9:14 PM 3.2 °F -7.8 °F -0.4 °F 85% 29.92 in 10.0 mi ESE 5.8 mph - N/A   Clear
9:34 PM 3.2 °F -7.8 °F -0.4 °F 85% 29.92 in 10.0 mi SE 5.8 mph - N/A   Clear
9:53 PM 1.4 °F -11.3 °F -2.2 °F 85% 29.92 in 10.0 mi SE 6.9 mph - N/A   Clear
10:14 PM 3.2 °F -10.3 °F -0.4 °F 85% 29.92 in 10.0 mi SSE 8.1 mph - N/A   Clear
10:34 PM 3.2 °F -9.1 °F -0.4 °F 85% 29.91 in 10.0 mi SE 6.9 mph - N/A   Clear
10:53 PM 3.2 °F -6.2 °F -0.4 °F 85% 29.91 in 10.0 mi SE 4.6 mph - N/A   Clear
11:14 PM 1.4 °F -8.3 °F -2.2 °F 85% 29.92 in 10.0 mi SSE 4.6 mph - N/A   Clear
11:34 PM 3.2 °F -4.2 °F -0.4 °F 85% 29.91 in 10.0 mi SE 3.5 mph - N/A   Scattered Clouds
11:53 PM 6.8 °F -2.0 °F 1.4 °F 79% 29.91 in 1.0 mi SE 4.6 mph - N/A   Overcast